Location: Newark
(41.6500°N, 71.4833°W)
Time: 01:11:47
(UTC+00:00)

deb Explorer IX - Pass Details

Date: 28 January 2020
Orbit: 549 x 1099 km, 38.8° (Epoch: 27 February)

Event Time Altitude Azimuth Distance (km) Brightness Sun altitude
Rises 01:26:53 0° 235° (SW) 3,591 ? -39.5°
Reaches altitude 10° 01:29:29 10° 230° (SW) 2,721 ? -40.0°
Enters shadow 01:31:02 18° 224° (SW) 2,231 ? -40.3°
Maximum altitude 01:35:51 48° 158° (SSE) 1,350 - -41.2°
Drops below altitude 10° 01:42:45 10° 87° (E) 2,943 - -42.4°
Sets 01:45:39 0° 82° (E) 3,909 - -43.0°
